Time,TemperatureF,DewpointF,PressureIn,WindDirection,WindDirectionDegrees,WindSpeedMPH,WindSpeedGustMPH,Humidity,HourlyPrecipIn,Conditions,Clouds,dailyrainin,SolarRadiationWatts/m^2,SoftwareType,DateUTC
2017-02-19 00:12:00,47.2,43.0,29.83,East,97,0.0,0.0,86,0.00,,,0.00,0,weatherlink.com 1.10,2017-02-19 05:12:00,
2017-02-19 00:27:00,47.2,43.0,29.83,East,97,0.0,0.0,86,0.00,,,0.00,0,weatherlink.com 1.10,2017-02-19 05:27:00,
2017-02-19 00:42:00,46.8,43.0,29.83,East,97,0.0,0.0,87,0.00,,,0.00,0,weatherlink.com 1.10,2017-02-19 05:42:00,
2017-02-19 00:57:00,46.4,43.0,29.83,East,98,0.0,0.0,87,0.00,,,0.00,0,weatherlink.com 1.10,2017-02-19 05:57:00,
2017-02-19 01:12:00,46.3,43.0,29.82,East,98,0.0,0.0,88,0.00,,,0.00,0,weatherlink.com 1.10,2017-02-19 06:12:00,
2017-02-19 01:27:00,46.6,43.0,29.82,East,98,0.0,0.0,88,0.00,,,0.00,0,weatherlink.com 1.10,2017-02-19 06:27:00,
2017-02-19 01:42:00,46.6,43.0,29.82,ESE,117,0.0,0.0,86,0.00,,,0.00,0,weatherlink.com 1.10,2017-02-19 06:42:00,
2017-02-19 01:57:00,46.5,43.0,29.82,South,177,0.0,0.0,86,0.00,,,0.00,0,weatherlink.com 1.10,2017-02-19 06:57:00,
2017-02-19 02:12:00,48.7,45.0,29.83,ENE,57,0.0,12.0,86,0.00,,,0.00,0,weatherlink.com 1.10,2017-02-19 07:12:00,
2017-02-19 02:27:00,52.3,46.0,29.83,SW,224,2.0,10.0,79,0.00,,,0.00,0,weatherlink.com 1.10,2017-02-19 07:27:00,
2017-02-19 02:42:00,53.5,46.0,29.83,NE,49,0.0,11.0,75,0.00,,,0.00,0,weatherlink.com 1.10,2017-02-19 07:42:00,
2017-02-19 02:57:00,54.4,46.0,29.84,SSW,211,0.0,12.0,73,0.00,,,0.00,0,weatherlink.com 1.10,2017-02-19 07:57:00,
2017-02-19 03:12:00,54.2,46.0,29.84,NNW,341,4.0,15.0,73,0.00,,,0.00,0,weatherlink.com 1.10,2017-02-19 08:12:00,
2017-02-19 03:27:00,54.5,46.0,29.84,North,360,6.0,10.0,73,0.00,,,0.00,0,weatherlink.com 1.10,2017-02-19 08:27:00,
2017-02-19 03:42:00,54.5,46.0,29.84,WSW,258,2.0,14.0,73,0.00,,,0.00,0,weatherlink.com 1.10,2017-02-19 08:42:00,
2017-02-19 03:57:00,53.6,46.0,29.84,East,91,0.0,0.0,74,0.00,,,0.00,0,weatherlink.com 1.10,2017-02-19 08:57:00,
2017-02-19 04:12:00,52.5,45.0,29.84,SSW,202,0.0,1.0,76,0.00,,,0.00,0,weatherlink.com 1.10,2017-02-19 09:12:00,
2017-02-19 04:27:00,51.8,45.0,29.84,SW,231,0.0,3.0,78,0.00,,,0.00,0,weatherlink.com 1.10,2017-02-19 09:27:00,
2017-02-19 04:42:00,52.6,45.0,29.84,South,170,0.0,14.0,76,0.00,,,0.00,0,weatherlink.com 1.10,2017-02-19 09:42:00,
2017-02-19 04:57:00,52.8,45.0,29.84,East,81,0.0,5.0,76,0.00,,,0.00,0,weatherlink.com 1.10,2017-02-19 09:57:00,
2017-02-19 05:12:00,53.2,46.0,29.84,ENE,63,2.0,8.0,76,0.00,,,0.00,0,weatherlink.com 1.10,2017-02-19 10:12:00,
2017-02-19 05:27:00,53.8,46.0,29.84,West,273,2.0,16.0,75,0.00,,,0.00,0,weatherlink.com 1.10,2017-02-19 10:27:00,
2017-02-19 05:42:00,53.6,46.0,29.85,WNW,285,6.0,11.0,75,0.00,,,0.00,0,weatherlink.com 1.10,2017-02-19 10:42:00,
2017-02-19 05:57:00,53.6,46.0,29.84,WNW,303,1.0,18.0,75,0.00,,,0.00,0,weatherlink.com 1.10,2017-02-19 10:57:00,
2017-02-19 06:12:00,53.6,46.0,29.85,NE,56,0.0,12.0,75,0.00,,,0.00,0,weatherlink.com 1.10,2017-02-19 11:12:00,
2017-02-19 06:27:00,53.5,46.0,29.85,ENE,74,1.0,13.0,75,0.00,,,0.00,0,weatherlink.com 1.10,2017-02-19 11:27:00,
2017-02-19 06:42:00,53.3,46.0,29.86,SW,215,0.0,5.0,75,0.00,,,0.00,0,weatherlink.com 1.10,2017-02-19 11:42:00,
2017-02-19 06:57:00,53.3,45.0,29.86,East,99,2.0,4.0,74,0.00,,,0.00,0,weatherlink.com 1.10,2017-02-19 11:57:00,
2017-02-19 07:12:00,53.5,45.0,29.87,South,178,0.0,6.0,74,0.00,,,0.00,0,weatherlink.com 1.10,2017-02-19 12:12:00,
2017-02-19 07:27:00,53.7,46.0,29.88,East,88,5.0,10.0,74,0.00,,,0.00,11,weatherlink.com 1.10,2017-02-19 12:27:00,
2017-02-19 07:42:00,53.6,46.0,29.88,SSE,150,0.0,3.0,74,0.00,,,0.00,19,weatherlink.com 1.10,2017-02-19 12:42:00,
2017-02-19 07:57:00,54.1,46.0,29.89,SE,125,0.0,13.0,73,0.00,,,0.00,40,weatherlink.com 1.10,2017-02-19 12:57:00,
2017-02-19 08:12:00,54.2,46.0,29.90,West,267,0.0,10.0,73,0.00,,,0.00,28,weatherlink.com 1.10,2017-02-19 13:12:00,
2017-02-19 08:28:00,55.2,46.0,29.90,North,5,0.0,15.0,70,0.00,,,0.00,33,weatherlink.com 1.10,2017-02-19 13:28:00,
2017-02-19 08:43:00,56.0,45.0,29.89,SSW,205,1.0,15.0,67,0.00,,,0.00,28,weatherlink.com 1.10,2017-02-19 13:43:00,
2017-02-19 08:58:00,56.8,45.0,29.91,NW,325,0.0,19.0,65,0.00,,,0.00,28,weatherlink.com 1.10,2017-02-19 13:58:00,
2017-02-19 09:13:00,57.1,45.0,29.91,WNW,299,3.0,11.0,64,0.00,,,0.00,26,weatherlink.com 1.10,2017-02-19 14:13:00,
2017-02-19 09:28:00,57.9,45.0,29.91,NNE,24,1.0,11.0,62,0.00,,,0.00,58,weatherlink.com 1.10,2017-02-19 14:28:00,
2017-02-19 09:43:00,58.7,44.0,29.92,NW,321,1.0,14.0,59,0.00,,,0.00,135,weatherlink.com 1.10,2017-02-19 14:43:00,
2017-02-19 09:58:00,58.8,45.0,29.92,WNW,284,5.0,15.0,60,0.00,,,0.00,283,weatherlink.com 1.10,2017-02-19 14:58:00,